[[{"header":{"parameterUnit":"m.s-1","parameterCategory":2,"la1":30.2992,"la2":30.254,"lo1":-89.0895,"lo2":-89.0443,"dy":0.0025,"dx":0.0025,"nx":19,"ny":19,"refTime":"2026-04-03T03:00:00:Z","depth":"0","parameterNumber":2,"parameterNumberName":"U-component_of_CURRENTS"},"data":[0,0,0,0.2735,0.2737,0.2771,0.277,0.271,0.271,0,0,0,0,0,0,0,0,0,0,0,0.2712,0.2712,0.2735,0.2737,0.2771,0.277,0.271,0.271,0,0,0,0,0,0,0,0,0,0,0,0.2711,0.2712,0.2713,0.2738,0.2771,0.277,0.271,0.2702,0,0,0,0,0,0,0,0,0,0,0.2679,0.2674,0.2712,0.2713,0.2738,0.2771,0.277,0.2703,0.2703,0.2677,0,0.2702,0,0.2724,0.2707,0.2706,0,0,0,0.2702,0.2674,0.2703,0.2713,0.2739,0.2771,0.2746,0.2703,0.2703,0.2676,0.2702,0.2701,0.2723,0.2706,0.2706,0.2702,0.2702,0,0,0.27,0.269,0.2704,0.2704,0.2773,0.2745,0.2747,0.2704,0.27,0.2702,0.27,0.2722,0.2706,0.2706,0.2702,0.2702,0,0,0,0.2719,0.2689,0.272,0.2705,0.2731,0.2747,0.2749,0.2701,0.2719,0.27,0.2721,0.2706,0.2705,0.2701,0.2702,0.2702,0,0,0,0.2716,0.2703,0.2719,0.2709,0.2733,0.273,0.2747,0.2721,0.2718,0.2722,0.2706,0.2705,0.2701,0.2702,0.2702,0.2713,0,0,0,0.2706,0.2701,0.2717,0.2709,0.2744,0.2732,0.2744,0.2721,0.2732,0.2706,0.2705,0.2701,0.2701,0.2701,0.2711,0.2778,0,0,0,0.2674,0.269,0.2717,0.2722,0.2744,0.273,0.2745,0.2716,0.2689,0.2705,0.2701,0.2702,0.2701,0.2711,0.2777,0.2772,0.278,0,0,0.2672,0.2689,0.2687,0.2713,0.2681,0.2722,0.2703,0.2682,0.2698,0.2701,0.2701,0.2702,0.2711,0.2778,0.2815,0.2821,0,0,0,0.267,0.2656,0.2651,0.2644,0.2656,0.2674,0.2668,0.2695,0.2717,0.2698,0.2717,0.2723,0.2765,0.2759,0.2765,0.2775,0.2705,0.2705,0.2705,0.2595,0.2602,0.2567,0.2574,0.2583,0.2624,0.2657,0.2703,0.2694,0.2727,0.2734,0.28,0.2791,0.2796,0.2806,0.2741,0.2741,0.2741,0.2741,0.2513,0.2479,0.2497,0.2472,0.2521,0.2531,0.2648,0.269,0.2781,0.2761,0.2802,0.2772,0.2802,0.2811,0.2741,0.2741,0.2741,0.2741,0.2741,0.2424,0.2414,0.2408,0.2386,0.2419,0.2502,0.2601,0.2701,0.2791,0.2832,0.2863,0.2862,0.2866,0.2862,0.2862,0.2862,0.2863,0.2863,0.2863,0.2336,0.2332,0.2295,0.2298,0.2317,0.2407,0.2582,0.2683,0.2831,0.2883,0.2883,0.2892,0.2838,0.2827,0.2868,0.2868,0.2867,0.2866,0.2866,0.2206,0.2229,0.2182,0.2181,0.2223,0.2264,0.2468,0.2683,0.2824,0.2896,0.2963,0.2925,0.2938,0.2933,0.2926,0.299,0.299,0.299,0.299,0.2122,0.2126,0.2069,0.2062,0.2098,0.2196,0.2298,0.2521,0.282,0.2939,0.3021,0.2972,0.2966,0.2978,0.2972,0.2964,0.3037,0.3038,0.3038,0.2016,0.2039,0.1971,0.1984,0.2018,0.2104,0.2135,0.2305,0.277,0.3041,0.3041,0.3039,0.2966,0.2956,0.2969,0.296,0.2946,0,0]},{"header":{"parameterUnit":"m.s-1","parameterCategory":2,"la1":30.2992,"la2":30.254,"lo1":-89.0895,"lo2":-89.0443,"dy":0.0025,"dx":0.0025,"nx":19,"ny":19,"refTime":"2026-04-03T03:00:00:Z","depth":"0","parameterNumber":3,"parameterNumberName":"V-component_of_CURRENTS"},"data":[0,0,0,0.0017,0.0016,-0.0051,-0.0052,-0.0148,-0.0148,0,0,0,0,0,0,0,0,0,0,0,0.0045,0.0045,0.0017,0.0016,-0.0051,-0.0052,-0.0148,-0.0148,0,0,0,0,0,0,0,0,0,0,0,0.0045,0.0045,0.0044,0.0016,-0.0051,-0.0052,-0.0147,-0.0097,0,0,0,0,0,0,0,0,0,0,-0.0032,0.0004,0.0045,0.0044,0.0015,-0.0051,-0.0052,-0.0095,-0.01,-0.0116,0,-0.0115,0,-0.0131,-0.0154,-0.0154,0,0,0,0.0003,0.0009,-0.0012,0.0044,0.0015,-0.0051,-0.0024,-0.0098,-0.0104,-0.0124,-0.0117,-0.012,-0.0133,-0.0154,-0.0155,-0.0164,-0.0163,0,0,0.0007,0.003,-0.0008,-0.0016,0.0012,-0.0022,-0.0026,-0.0102,-0.01,-0.0117,-0.0123,-0.0134,-0.0155,-0.0156,-0.0164,-0.0163,0,0,0,0.0026,0.0033,0.0014,-0.0011,-0.0021,-0.0024,-0.0029,-0.0097,-0.0104,-0.0124,-0.0135,-0.0155,-0.0156,-0.0165,-0.0164,-0.0058,0,0,0,0.0028,0.0045,0.0016,0.0029,-0.0019,-0.0058,-0.0022,-0.0099,-0.0108,-0.0135,-0.0156,-0.0157,-0.0165,-0.0164,-0.0062,0.0001,0,0,0,0.0045,0.0046,0.0043,0.003,0.0006,-0.0057,-0.0068,-0.0101,-0.0114,-0.0154,-0.0158,-0.0166,-0.0164,-0.0066,-0.0006,0.0048,0,0,0,0.0064,0.0097,0.0044,0.0072,0.0007,-0.0002,-0.0068,-0.0087,-0.0113,-0.0156,-0.0165,-0.0164,-0.0067,-0.0011,0.0043,0.012,0.0147,0,0,0.0122,0.0104,0.0121,0.0072,0.0089,0.0006,0.0027,-0.004,-0.0101,-0.0145,-0.0146,-0.0061,-0.0007,0.0047,0.0192,0.0217,0,0,0,0.015,0.0164,0.0159,0.0151,0.0118,0.0104,0.0028,-0.0,-0.0038,-0.011,-0.0065,-0.0034,-0.0004,0.0033,0.0053,-0.0049,-0.0158,-0.0158,-0.0158,0.0256,0.023,0.026,0.0228,0.0219,0.0168,0.0159,0.0105,0.0027,0.0031,0.0048,0.0159,0.0199,0.0215,0.011,0.0034,0.0034,0.0035,0.0035,0.0343,0.0361,0.0331,0.0348,0.0319,0.0321,0.0277,0.0233,0.0224,0.0142,0.0165,0.0138,0.0243,0.0122,0.0042,0.0041,0.004,0.0039,0.0039,0.0411,0.0417,0.0414,0.043,0.0454,0.0418,0.0483,0.042,0.0334,0.036,0.037,0.0369,0.0266,0.0362,0.0362,0.0363,0.0363,0.0364,0.0364,0.0474,0.0474,0.0501,0.0514,0.0545,0.0596,0.0597,0.0607,0.0573,0.0507,0.0507,0.0302,0.0258,0.0248,0.0372,0.0371,0.037,0.0369,0.0369,0.0539,0.0528,0.0587,0.0618,0.0704,0.082,0.0817,0.0858,0.0828,0.0831,0.0546,0.0574,0.0547,0.0531,0.0527,0.0716,0.0716,0.0716,0.0716,0.0576,0.0575,0.0655,0.0736,0.085,0.0929,0.1094,0.11,0.0892,0.0758,0.063,0.0553,0.0544,0.0509,0.0493,0.0484,0.0659,0.0658,0.0658,0.06,0.0629,0.0698,0.0775,0.091,0.1061,0.1221,0.1301,0.0959,0.0639,0.0476,0.0479,0.0343,0.0336,0.0256,0.0241,0.0217,0,0]}],[{"header":{"parameterUnit":"m.s-1","parameterCategory":2,"la1":30.2992,"la2":30.254,"lo1":-89.0895,"lo2":-89.0443,"dy":0.0025,"dx":0.0025,"nx":19,"ny":19,"refTime":"2026-04-03T03:00:00:Z","depth":"2","parameterNumber":2,"parameterNumberName":"U-component_of_CURRENTS"},"data":[0,0,0,0.2555,0.2557,0.2606,0.2605,0.2594,0.2594,0,0,0,0,0,0,0,0,0,0,0,0.2513,0.2513,0.2555,0.2557,0.2606,0.2605,0.2594,0.2594,0,0,0,0,0,0,0,0,0,0,0,0.2512,0.2513,0.2514,0.2558,0.2606,0.2605,0.2594,0.2566,0,0,0,0,0,0,0,0,0,0,0.2524,0.2503,0.2513,0.2514,0.2558,0.2606,0.2605,0.2565,0.2568,0.2564,0,0.2585,0,0.2619,0.2596,0.2596,0,0,0,0.2517,0.2501,0.2534,0.2514,0.2559,0.2606,0.2572,0.2567,0.257,0.2568,0.2585,0.2586,0.2618,0.2596,0.2596,0.2634,0.2635,0,0,0.2514,0.2497,0.2532,0.2537,0.2589,0.2571,0.2574,0.2569,0.2566,0.2586,0.2587,0.2618,0.2596,0.2596,0.2634,0.2634,0,0,0,0.2534,0.2495,0.2528,0.2536,0.2567,0.2574,0.2577,0.2565,0.2583,0.2587,0.2618,0.2596,0.2596,0.2634,0.2634,0.2645,0,0,0,0.253,0.2511,0.2527,0.2514,0.2568,0.2578,0.2573,0.2582,0.2584,0.2618,0.2596,0.2596,0.2633,0.2634,0.2644,0.2657,0,0,0,0.2507,0.2508,0.2523,0.2514,0.2559,0.2579,0.2594,0.2582,0.2604,0.2596,0.2596,0.2633,0.2634,0.2643,0.2655,0.2717,0,0,0,0.2473,0.2487,0.2522,0.253,0.2559,0.2579,0.2594,0.2595,0.2585,0.2596,0.2633,0.2634,0.2643,0.2654,0.2715,0.2682,0.2687,0,0,0.2469,0.2486,0.2486,0.252,0.2534,0.2568,0.2581,0.258,0.2596,0.2622,0.2623,0.2644,0.2655,0.2716,0.2719,0.2724,0,0,0,0.2469,0.2469,0.2476,0.2495,0.2526,0.2561,0.2577,0.2603,0.2634,0.2607,0.2654,0.2661,0.27,0.2676,0.268,0.2637,0.2637,0.2637,0.2637,0.2433,0.2445,0.2437,0.2461,0.2486,0.2551,0.2584,0.2629,0.2631,0.2661,0.2677,0.2741,0.2714,0.2717,0.2681,0.2681,0.2681,0.2681,0.2681,0.2388,0.2365,0.2401,0.2398,0.2461,0.2492,0.26,0.2636,0.2726,0.2705,0.2742,0.2696,0.2722,0.2682,0.2682,0.2682,0.2682,0.2682,0.2682,0.2325,0.2316,0.2326,0.2335,0.2387,0.2472,0.2567,0.2661,0.2739,0.2781,0.2787,0.2786,0.2763,0.281,0.281,0.281,0.2811,0.2811,0.2811,0.2246,0.2258,0.2243,0.2271,0.2298,0.239,0.2556,0.2647,0.2771,0.281,0.2811,0.2785,0.2781,0.2772,0.2816,0.2815,0.2814,0.2814,0.2814,0.2137,0.2166,0.2143,0.2156,0.2217,0.2252,0.2445,0.2625,0.2752,0.2805,0.2839,0.2837,0.2841,0.2837,0.283,0.2887,0.2887,0.2887,0.2887,0.2067,0.2077,0.2049,0.2056,0.2096,0.2185,0.2249,0.2401,0.262,0.269,0.2697,0.2626,0.2628,0.2616,0.2617,0.2604,0.2602,0.2601,0.26,0.199,0.2009,0.1962,0.1984,0.202,0.2088,0.207,0.2086,0.2314,0.2582,0.2579,0.2881,0.2795,0.2792,0.2788,0.2783,0.2769,0,0]},{"header":{"parameterUnit":"m.s-1","parameterCategory":2,"la1":30.2992,"la2":30.254,"lo1":-89.0895,"lo2":-89.0443,"dy":0.0025,"dx":0.0025,"nx":19,"ny":19,"refTime":"2026-04-03T03:00:00:Z","depth":"2","parameterNumber":3,"parameterNumberName":"V-component_of_CURRENTS"},"data":[0,0,0,0.0021,0.002,-0.0053,-0.0053,-0.0156,-0.0157,0,0,0,0,0,0,0,0,0,0,0,0.0052,0.0052,0.0021,0.002,-0.0053,-0.0054,-0.0156,-0.0157,0,0,0,0,0,0,0,0,0,0,0,0.0052,0.0052,0.0052,0.0019,-0.0053,-0.0054,-0.0156,-0.0101,0,0,0,0,0,0,0,0,0,0,-0.0031,0.0003,0.0052,0.0052,0.0019,-0.0053,-0.0054,-0.0099,-0.0105,-0.0122,0,-0.0121,0,-0.0139,-0.0163,-0.0163,0,0,0,0.0008,0.0008,-0.0009,0.0052,0.0019,-0.0053,-0.0024,-0.0102,-0.0109,-0.013,-0.0123,-0.0127,-0.0141,-0.0163,-0.0164,-0.0187,-0.0186,0,0,0.0012,0.0031,-0.0005,-0.0013,0.0015,-0.0021,-0.0026,-0.0106,-0.0108,-0.0123,-0.0129,-0.0143,-0.0164,-0.0165,-0.0187,-0.0187,0,0,0,0.0031,0.0035,0.0019,-0.0009,-0.002,-0.0023,-0.0028,-0.0105,-0.0109,-0.0131,-0.0144,-0.0165,-0.0166,-0.0188,-0.0187,-0.0092,0,0,0,0.0033,0.0046,0.0021,0.0031,-0.0018,-0.0063,-0.0025,-0.0103,-0.0113,-0.0143,-0.0165,-0.0167,-0.0188,-0.0187,-0.0095,-0.0035,0,0,0,0.0053,0.0048,0.0045,0.0032,0.0006,-0.0062,-0.0071,-0.0106,-0.0121,-0.0163,-0.0167,-0.0188,-0.0187,-0.0099,-0.0041,0.0003,0,0,0,0.0066,0.0091,0.0046,0.0063,0.0007,-0.0011,-0.0071,-0.0098,-0.0127,-0.0165,-0.0188,-0.0187,-0.01,-0.0045,-0.0001,0.0062,0.0085,0,0,0.0111,0.0097,0.0107,0.0065,0.0072,-0.0002,0.0005,-0.0063,-0.0119,-0.0166,-0.0167,-0.0094,-0.0042,0.0002,0.012,0.0141,0,0,0,0.0129,0.0138,0.0131,0.012,0.0086,0.0072,-0.0003,-0.0031,-0.0071,-0.0131,-0.0101,-0.007,-0.0046,-0.0016,0.0001,-0.0182,-0.0182,-0.0183,-0.0183,0.0212,0.0188,0.0209,0.018,0.0168,0.0117,0.0105,0.0053,-0.0018,-0.0016,0.0002,0.0096,0.0128,0.0142,-0.0016,-0.0015,-0.0015,-0.0015,-0.0014,0.0282,0.0295,0.0268,0.0279,0.0255,0.0251,0.0204,0.0164,0.0153,0.0082,0.01,0.0076,0.0166,-0.0007,-0.0008,-0.0009,-0.001,-0.0011,-0.0011,0.0336,0.0343,0.0339,0.0353,0.0373,0.0338,0.0394,0.0335,0.0252,0.0276,0.0281,0.0279,0.0161,0.0277,0.0277,0.0278,0.0278,0.0279,0.0279,0.0391,0.0392,0.0419,0.043,0.0459,0.0505,0.0502,0.0507,0.0468,0.0405,0.0404,0.0194,0.0184,0.0177,0.0286,0.0285,0.0284,0.0283,0.0283,0.0445,0.0442,0.0497,0.0528,0.0607,0.0712,0.0705,0.0731,0.07,0.0694,0.0466,0.0459,0.0435,0.042,0.0418,0.0583,0.0583,0.0583,0.0583,0.0481,0.0481,0.0562,0.0639,0.0744,0.0812,0.095,0.0925,0.0794,0.0686,0.0681,0.0627,0.0613,0.0594,0.0575,0.0573,0.0779,0.0779,0.078,0.0504,0.0533,0.0601,0.0676,0.0799,0.0935,0.1058,0.1047,0.0855,0.0784,0.0679,0.0603,0.0508,0.0493,0.0442,0.042,0.0409,0,0]}],[{"header":{"parameterUnit":"m.s-1","parameterCategory":2,"la1":30.2992,"la2":30.254,"lo1":-89.0895,"lo2":-89.0443,"dy":0.0025,"dx":0.0025,"nx":19,"ny":19,"refTime":"2026-04-03T03:00:00:Z","depth":"4","parameterNumber":2,"parameterNumberName":"U-component_of_CURRENTS"},"data":[0,0,0,0.1565,0.1569,0.1776,0.1777,0.1922,0.1923,0,0,0,0,0,0,0,0,0,0,0,0.1496,0.1498,0.1565,0.157,0.1776,0.1777,0.1922,0.1923,0,0,0,0,0,0,0,0,0,0,0,0.1496,0.1497,0.1499,0.157,0.1776,0.1778,0.1922,0.1798,0,0,0,0,0,0,0,0,0,0,0.1613,0.1572,0.1497,0.1499,0.1571,0.1776,0.1778,0.1793,0.1806,0.1791,0,0.1827,0,0.187,0.1929,0.1929,0,0,0,0.158,0.1563,0.1606,0.1499,0.1573,0.1776,0.1686,0.1801,0.1815,0.1806,0.1829,0.1836,0.1872,0.193,0.193,0.2044,0.2044,0,0,0.1569,0.1544,0.1597,0.1615,0.163,0.1679,0.1692,0.1811,0.183,0.183,0.184,0.1875,0.193,0.1931,0.2043,0.2044,0,0,0,0.1529,0.1536,0.1581,0.1608,0.1651,0.1685,0.17,0.1825,0.1837,0.1842,0.1877,0.1931,0.1932,0.2042,0.2043,0.2111,0,0,0,0.1522,0.1512,0.1575,0.1564,0.165,0.176,0.1711,0.183,0.1845,0.1876,0.1931,0.1933,0.2042,0.2043,0.2107,0.2114,0,0,0,0.1486,0.1509,0.1531,0.1562,0.1646,0.1759,0.178,0.1835,0.1864,0.1929,0.1933,0.2041,0.2043,0.2105,0.2109,0.216,0,0,0,0.1455,0.1496,0.1531,0.1602,0.1644,0.1776,0.1781,0.1898,0.1962,0.1931,0.2042,0.2043,0.2104,0.2107,0.2157,0.1886,0,0,0,0.1482,0.1499,0.1543,0.1578,0.1696,0.1748,0.1873,0.1959,0.1969,0.1994,0.1999,0.2109,0.2109,0.2159,0.1969,0,0,0,0,0.1536,0.1568,0.1613,0.1696,0.1786,0.1877,0.1969,0.2006,0.2083,0.2011,0.2117,0.2115,0.2145,0.1979,0.205,0.205,0.2049,0.2049,0.2049,0.1524,0.1591,0.1671,0.1765,0.185,0.1981,0.2057,0.2115,0.2128,0.2175,0.2178,0.2268,0.2096,0.2198,0.2199,0.2199,0.2199,0.22,0.22,0.1559,0.1601,0.1701,0.1804,0.1901,0.2009,0.2132,0.2179,0.2273,0.2251,0.2278,0.207,0.2207,0.2205,0.2204,0.2203,0.2203,0.2202,0.2202,0.1536,0.156,0.1648,0.178,0.1901,0.2026,0.2125,0.2236,0.2312,0.236,0.2191,0.2313,0.2298,0.239,0.2391,0.2391,0.2391,0.2391,0.2391,0.1457,0.1543,0.1614,0.1755,0.183,0.1956,0.2137,0.2203,0.2314,0.2223,0.2385,0.2332,0.2326,0.2309,0.2396,0.2395,0.2394,0.2394,0.2394,0.1416,0.1459,0.1544,0.1619,0.1767,0.1828,0.2031,0.2092,0.2149,0.2129,0.215,0.2161,0.2108,0.2107,0.208,0.2103,0.2099,0.2096,0,0.1358,0.1394,0.1477,0.1546,0.1607,0.1743,0.1749,0.1855,0.1955,0.1888,0.2162,0.2184,0.219,0.2128,0.2122,0.2088,0,0,0,0.1323,0.1357,0.138,0.1468,0.1516,0.1593,0.1739,0.1709,0.1939,0.1908,0.2017,0.2037,0.2256,0.2408,0.2353,0.2345,0.2315,0,0]},{"header":{"parameterUnit":"m.s-1","parameterCategory":2,"la1":30.2992,"la2":30.254,"lo1":-89.0895,"lo2":-89.0443,"dy":0.0025,"dx":0.0025,"nx":19,"ny":19,"refTime":"2026-04-03T03:00:00:Z","depth":"4","parameterNumber":3,"parameterNumberName":"V-component_of_CURRENTS"},"data":[0,0,0,0.0117,0.0116,0.0044,0.0044,-0.0053,-0.0054,0,0,0,0,0,0,0,0,0,0,0,0.0144,0.0144,0.0117,0.0116,0.0044,0.0044,-0.0053,-0.0054,0,0,0,0,0,0,0,0,0,0,0,0.0144,0.0144,0.0144,0.0116,0.0044,0.0044,-0.0053,-0.0001,0,0,0,0,0,0,0,0,0,0,0.0067,0.0093,0.0144,0.0144,0.0116,0.0044,0.0044,0.0001,-0.0005,-0.0016,0,-0.0014,0,-0.0029,-0.0059,-0.0059,0,0,0,0.0099,0.0098,0.0088,0.0144,0.0115,0.0045,0.0072,-0.0002,-0.0008,-0.0023,-0.0016,-0.002,-0.0031,-0.0059,-0.0059,-0.0096,-0.0096,0,0,0.0103,0.0117,0.0092,0.0084,0.0113,0.0074,0.007,-0.0006,-0.0011,-0.0016,-0.0022,-0.0032,-0.006,-0.006,-0.0097,-0.0096,0,0,0,0.0126,0.012,0.0111,0.0088,0.0079,0.0073,0.0067,-0.0008,-0.0008,-0.0023,-0.0033,-0.006,-0.0061,-0.0097,-0.0096,-0.0033,0,0,0,0.0128,0.0135,0.0113,0.0118,0.0082,0.0034,0.0067,-0.0003,-0.0012,-0.0033,-0.006,-0.0062,-0.0097,-0.0097,-0.0035,0.0015,0,0,0,0.0144,0.0136,0.0135,0.012,0.0097,0.0035,0.0029,-0.0005,-0.0017,-0.0059,-0.0062,-0.0097,-0.0097,-0.0037,0.001,0.0039,0,0,0,0.015,0.016,0.0136,0.0135,0.0098,0.0068,0.003,-0.0009,-0.0041,-0.006,-0.0097,-0.0096,-0.0037,0.0008,0.0036,0.0071,0,0,0,0.0168,0.0162,0.0161,0.0138,0.0127,0.0076,0.0061,0.0001,-0.0039,-0.0076,-0.0077,-0.0034,0.001,0.0038,0.0091,0,0,0,0,0.0169,0.0172,0.0162,0.0148,0.0119,0.0104,0.0039,0.0016,-0.0022,-0.0053,-0.0045,-0.0019,-0.0003,0.0009,-0.0095,-0.0095,-0.0095,-0.0095,-0.0095,0.0209,0.0191,0.0194,0.0172,0.0156,0.0114,0.0098,0.0057,0.0006,0.0001,0.0024,0.008,0.0094,0.0001,0.0001,0.0002,0.0002,0.0002,0.0002,0.0238,0.024,0.0225,0.0224,0.0211,0.0198,0.0158,0.0128,0.0118,0.0069,0.008,0.0064,0.0008,0.0007,0.0006,0.0006,0.0005,0.0005,0.0004,0.0261,0.0264,0.0264,0.0273,0.0287,0.0261,0.0301,0.0257,0.0188,0.0205,0.0203,0.0127,0.0132,0.0205,0.0205,0.0205,0.0206,0.0206,0.0206,0.0287,0.0289,0.0313,0.0324,0.035,0.0386,0.0387,0.0384,0.0321,0.0296,0.023,0.0149,0.0142,0.0143,0.0211,0.021,0.021,0.0209,0.0209,0.03,0.0314,0.0356,0.0387,0.0456,0.049,0.05,0.0485,0.0485,0.0449,0.033,0.0323,0.0306,0.0296,0.0301,0.0419,0.042,0.0421,0,0.0318,0.0323,0.0395,0.0462,0.0539,0.0556,0.0596,0.0583,0.0491,0.048,0.0457,0.0322,0.0316,0.0295,0.0287,0.0294,0,0,0,0.0326,0.0353,0.0409,0.048,0.0568,0.0599,0.0608,0.0594,0.0509,0.0514,0.044,0.0435,0.033,0.0227,0.0184,0.0176,0.0176,0,0]}]]